Temp
3 3 3 4 4 4 4 4 4 4 4 4 4 4 4 4 4 4 4 4 4 4 4 4 4 4 4 4 4 4 4 4 4 4 4 4 4 4 5 5 5 5 5 5 5 5 5 5 5 5 5 5 5 5 5 5 5 5 5 5 5 5 4 4 4 4 4 4 4 4 4 5 5 5 5 5 5 5 5 5 5 5 5 5 5 5
3 3 3 3 3 3 3 3 4 4 4 4 4 4 4 4 4 4 4 4 4 4 4 4 4 4 4 4 4 4 4 4 4 4 4 4 4 4 4 4 4 4 4 5 5 5 5 5 5 5 5 5 5 5 5 5 5 5 5 5 4 4 4 4 4 4 4 4 4 4 4 4 4 4 4 5 5 5 5 5 5 5 5 5 5 5
2 2 2 2 3 3 3 3 3 3 3 3 3 3 3 3 3 3 3 3 3 3 3 3 3 3 3 3 3 3 3 3 3 4 4 4 4 4 4 4 4 4 4 4 4 5 5 5 5 5 5 5 5 5 5 5 5 5 4 4 4 4 4 4 4 4 4 4 4 4 4 4 4 4 4 4 4 4 4 4 4 4 4 4 4 5
2 2 2 2 2 2 2 2 3 3 3 3 3 3 3 3 3 3 3 3 3 3 3 3 3 3 3 3 3 3 3 3 3 3 3 3 4 4 4 4 4 4 4 4 4 4 5 5 5 5 5 5 5 5 5 5 5 4 4 4 4 4 4 4 4 4 4 4 3 3 3 3 4 4 4 4 4 4 4 4 4 4 4 4 4 4
1 1 1 2 2 2 2 2 2 2 2 2 3 3 3 3 3 3 3 3 3 3 3 3 3 3 3 3 3 3 3 3 3 3 3 3 3 4 4 4 4 4 4 4 4 4 4 4 4 5 5 5 5 5 4 4 4 4 4 4 4 4 4 4 4 4 4 3 3 3 3 3 3 3 3 3 3 4 4 4 4 4 4 4 4 4
1 1 1 1 1 2 2 2 2 2 2 2 2 2 3 3 3 3 3 3 3 3 3 3 3 3 3 3 3 3 3 3 3 3 3 3 3 3 3 4 4 4 4 4 4 4 4 4 4 4 4 4 4 4 4 4 4 4 4 4 4 4 4 4 4 4 3 3 3 3 3 3 3 3 3 3 3 3 3 3 3 3 4 4 4 4
1 1 1 1 1 1 2 2 2 2 2 2 2 2 2 2 2 2 2 3 2 2 2 2 3 3 3 3 3 3 3 3 3 3 3 3 3 3 3 3 3 4 4 4 4 4 4 4 4 4 4 4 4 4 4 4 4 4 4 4 4 4 4 4 3 3 3 3 3 3 3 3 3 3 3 3 3 3 3 3 3 3 3 4 4 4
1 1 1 1 1 1 1 2 2 2 2 2 2 2 2 2 2 2 2 2 2 2 2 2 2 2 2 2 2 3 3 3 3 3 3 3 3 3 3 3 3 3 3 3 3 3 4 4 4 4 4 4 4 4 4 4 4 4 4 4 4 4 3 3 3 3 3 3 3 3 3 3 3 3 2 2 2 2 2 3 3 3 3 3 3 3
0 1 1 1 1 1 2 2 2 2 2 2 2 2 2 2 2 2 2 2 2 2 2 2 2 2 2 2 2 2 2 3 3 3 3 3 3 3 3 3 3 3 3 3 3 3 3 3 3 4 4 4 4 4 4 4 4 4 4 3 3 3 3 3 3 3 3 3 3 3 3 3 2 2 2 2 2 2 2 2 2 2 3 3 3 3
0 1 1 1 1 1 1 2 2 2 2 2 2 2 2 2 2 2 2 2 2 2 2 2 2 2 2 2 2 2 2 2 2 3 3 3 3 3 3 3 3 3 3 3 3 3 3 3 3 3 3 3 3 3 3 3 3 3 3 3 3 3 3 3 3 3 3 3 3 2 2 2 2 2 2 2 2 2 2 2 2 2 2 2 3 3
1 1 1 1 1 1 2 2 2 2 2 2 2 2 2 2 2 2 2 2 2 2 2 2 2 2 2 2 2 2 2 2 2 2 2 2 3 3 3 3 3 3 3 3 3 3 3 3 3 3 3 3 3 3 3 3 3 3 3 3 3 3 3 3 3 3 2 2 2 2 2 2 2 2 2 2 2 2 2 2 2 2 2 2 2 3
1 1 1 1 1 1 2 2 2 1 2 1 1 1 1 2 2 2 2 2 2 2 2 2 2 2 2 2 2 2 2 2 2 2 2 2 2 2 2 2 2 3 3 3 3 3 3 3 3 3 3 3 3 3 3 3 3 3 3 3 3 3 2 2 2 2 2 2 2 2 2 2 2 2 2 2 2 2 2 2 2 2 2 2 2 2
1 1 1 1 1 1 2 2 2 2 2 2 2 2 2 2 2 2 2 2 2 2 2 2 2 2 2 2 2 2 2 2 2 2 2 2 2 2 2 2 2 2 2 2 2 2 2 2 2 2 2 2 2 2 2 2 2 2 2 2 2 2 2 2 2 2 2 2 2 2 2 1 1 1 1 1 1 1 1 1 2 2 2 2 2 2
1 1 1 1 1 1 2 1 1 2 2 2 2 2 2 2 2 2 2 2 2 2 2 2 2 2 2 2 2 2 2 2 2 2 2 2 2 2 2 2 2 2 2 2 2 2 2 2 2 2 2 2 2 2 2 2 2 2 2 2 2 2 2 2 2 2 2 2 1 1 1 1 1 1 1 1 1 1 1 1 2 2 2 2 2 2
1 1 1 1 1 2 2 2 2 2 2 2 2 2 2 2 2 2 2 2 2 2 2 2 2 2 2 2 2 2 2 2 2 2 2 2 2 2 2 2 2 2 2 2 2 2 2 2 2 2 2 2 2 2 2 2 2 2 1 1 1 1 1 1 1 1 1 1 1 1 1 1 1 1 1 1 1 1 1 1 1 1 2 2 2 2
1 1 1 1 2 2 2 2 2 2 2 2 2 2 2 2 2 2 2 2 2 2 2 2 2 2 2 2 2 2 2 2 2 2 2 2 2 2 2 2 2 2 2 2 2 2 2 2 2 2 2 2 2 2 2 2 1 1 1 1 1 1 1 1 1 1 1 1 1 1 1 1 1 1 1 1 1 1 1 1 1 1 1 1 2 2
1 1 1 1 2 2 2 2 2 2 2 2 2 2 2 2 2 2 2 2 2 2 2 2 2 2 2 3 3 2 2 2 2 1 1 1 2 2 2 1 1 1 1 1 1 1 1 1 1 2 2 2 2 2 2 1 1 1 1 1 1 1 1 1 1 1 1 1 1 1 1 1 1 1 1 1 1 1 1 1 1 1 1 1 1 1
1 1 1 1 1 2 2 2 2 2 2 2 2 2 2 2 2 2 2 2 2 2 2 2 2 2 2 2 3 3 3 2 2 2 1 1 1 2 2 1 1 1 1 1 1 1 1 1 1 2 2 2 2 2 1 1 1 1 1 1 1 1 1 1 1 1 1 1 1 1 1 1 1 1 1 1 1 1 1 1 1 1 1 1 1 1
2 2 1 1 1 1 2 2 2 2 2 2 2 2 2 2 2 2 2 2 2 2 2 2 2 2 2 2 3 3 3 2 2 2 1 1 1 1 1 1 1 1 1 1 1 1 1 1 1 1 2 2 1 1 1 1 1 1 1 1 1 1 1 1 1 1 1 1 1 1 1 1 1 1 1 1 1 1 1 1 1 1 1 1 1 1
2 2 2 1 1 1 1 1 2 2 2 2 2 2 2 2 2 2 2 2 2 2 2 2 2 2 2 2 2 2 2 2 2 2 1 1 1 1 1 1 1 1 1 1 1 1 1 1 1 1 1 1 1 1 1 1 1 1 1 1 1 1 1 1 1 1 1 1 1 1 1 1 1 1 1 1 1 1 1 1 1 1 1 1 1 1
2 2 2 2 2 2 2 2 2 2 2 2 2 2 2 2 2 2 2 2 2 2 2 2 2 2 2 2 2 2 2 2 2 1 1 1 1 1 1 1 1 1 1 1 1 1 1 1 1 1 1 1 1 1 1 1 1 1 1 1 1 1 1 1 1 1 1 1 1 1 1 1 1 1 1 1 1 1 1 1 1 1 1 1 1 1
1 1 2 2 2 2 2 2 2 2 2 2 2 2 2 2 2 2 2 2 2 2 2 2 2 2 2 2 2 2 2 2 2 1 1 1 1 1 1 1 1 1 1 1 1 1 1 1 1 1 1 1 1 1 1 1 1 1 1 1 1 1 1 1 1 1 1 1 1 1 1 1 1 1 1 1 1 1 1 1 1 1 1 1 1 1
1 1 1 1 1 2 2 2 2 2 2 2 2 2 2 2 2 2 2 2 2 2 2 2 2 2 2 2 2 2 2 2 1 1 1 1 1 2 2 2 1 1 1 1 1 1 1 1 1 1 1 1 1 1 1 1 1 1 1 1 1 1 1 1 1 1 1 1 1 1 1 1 1 1 1 1 1 1 1 1 1 1 1 1 1 1
2 2 2 2 2 2 2 2 2 2 2 2 2 2 2 2 2 2 2 2 2 2 2 2 2 2 2 2 1 1 1 1 1 1 1 1 1 2 2 2 1 1 1 1 1 1 1 1 1 1 1 1 1 1 1 1 1 1 1 1 1 1 1 1 1 1 1 1 1 1 1 1 1 1 1 1 1 1 1 1 1 1 1 1 1 1
2 2 2 2 2 2 2 2 2 2 2 2 2 2 2 1 2 2 2 2 2 1 1 1 1 1 1 1 1 1 1 2 1 1 1 1 1 1 2 2 2 1 1 1 1 1 1 1 1 1 1 1 1 1 0 0 0 1 0 1 1 1 1 1 1 1 1 1 1 1 1 1 1 1 1 1 1 1 1 0 1 1 1 1 1 1
2 2 2 3 3 3 3 3 3 3 3 3 2 2 2 2 2 1 1 1 1 1 1 1 1 1 1 1 1 1 2 2 2 1 1 1 1 1 2 2 2 1 1 1 1 1 1 1 1 1 1 1 1 1 0 0 0 0 0 0 0 0 0 1 1 1 1 1 1 1 1 1 1 1 1 1 1 1 0 0 0 0 0 0 0 0
2 2 3 3 3 3 3 3 3 3 3 3 3 3 3 3 2 2 1 1 1 1 1 1 1 1 1 1 1 2 2 2 2 2 1 1 1 1 2 2 2 2 1 1 1 1 1 1 1 1 1 1 1 1 1 1 0 0 0 0 0 0 0 0 0 0 0 0 0 0 0 0 0 0 0 0 0 0 0 0 0 0 0 0 0 0
2 2 2 2 2 3 3 3 3 3 3 3 3 3 3 3 3 2 1 1 1 1 0 0 1 1 1 1 2 2 2 2 2 2 2 1 1 1 1 2 2 1 1 1 1 1 1 1 1 1 1 1 1 1 1 1 0 0 0 0 0 0 0 0 0 0 0 0 0 0 0 0 0 0 0 0 0 0 0 0 0 0 0 -0 -0 -0
2 2 2 2 2 2 2 2 2 2 2 3 3 3 3 3 3 2 2 2 1 1 0 0 1 1 1 1 2 2 2 2 2 2 2 1 1 1 1 1 1 1 1 1 1 1 1 1 1 1 1 1 1 1 1 1 0 0 0 0 0 0 0 0 0 0 0 0 0 0 0 0 0 0 0 0 0 0 0 -0 -0 -0 -0 -0 -0 -0
2 1 1 1 2 2 2 2 2 2 2 2 2 2 2 2 2 2 2 2 2 1 1 1 1 1 1 1 1 1 2 2 3 3 2 2 1 1 2 1 1 1 1 1 1 1 1 1 1 1 1 1 1 1 1 1 1 1 1 0 0 0 0 0 0 0 0 0 0 0 -0 -0 -0 -0 -0 -0 -0 -0 -0 -0 -0 -0 -1 -1 -1 -1
1 1 1 1 1 1 1 1 1 1 1 1 1 1 1 1 2 2 2 2 2 2 2 2 2 1 1 1 1 1 2 3 3 3 2 2 2 2 2 1 1 1 1 1 0 0 1 1 1 2 1 1 1 1 1 1 1 1 1 1 0 0 0 0 0 0 0 0 0 0 -0 -0 -0 -0 -0 -0 -0 -0 -0 -0 -1 -1 -1 -1 -1 -1
0 0 0 0 1 1 1 1 1 1 1 1 1 1 1 1 1 1 1 1 2 2 2 2 2 2 1 1 1 1 2 2 2 2 2 2 2 2 1 1 1 1 1 1 1 1 1 1 1 2 2 1 1 1 1 1 1 1 1 0 0 0 0 0 0 0 0 0 0 0 -0 -0 -0 -1 -1 -1 -1 -1 -1 -1 -1 -1 -1 -1 -1 -1
0 0 0 0 0 0 0 0 0 0 0 0 0 0 0 0 0 0 0 0 1 1 1 1 1 1 1 1 1 1 1 2 2 2 2 2 2 1 1 1 1 1 1 1 1 1 1 1 1 1 1 1 1 1 1 1 1 1 0 0 0 0 0 0 0 0 0 0 0 0 -0 -0 -0 -0 -1 -1 -1 -1 -1 -1 -1 -1 -1 -1 -1 -1
-0 -0 -0 -0 -0 -0 -0 -0 -0 -0 -0 -0 -0 -0 -0 -0 -0 -0 -0 -0 -0 -0 -0 -0 0 0 1 1 1 1 1 1 1 1 1 1 1 1 1 1 0 0 1 1 0 0 0 0 0 1 1 1 1 0 0 0 0 0 0 0 0 0 0 0 0 0 0 0 0 0 -0 -0 -0 -0 -0 -1 -1 -1 -1 -1 -1 -1 -1 -1 -0 -0
-1 -1 -1 -0 -0 -0 -0 -0 -0 -0 -0 -0 -0 -0 -0 -0 -1 -1 -1 -1 -1 -1 -1 -1 -1 -0 -0 0 0 1 1 1 1 1 1 1 1 1 1 0 1 1 1 1 0 0 0 0 -0 -0 0 0 0 0 0 0 0 0 0 0 0 0 0 -0 -0 -0 -0 -0 -0 -0 -0 -0 -0 -0 -0 -0 -1 -1 -1 -1 -1 -1 -1 -1 -1 -0
-1 -1 -1 -1 -1 -1 -1 -1 -1 -1 -1 -1 -1 -1 -1 -1 -1 -1 -1 -1 -1 -1 -1 -1 -1 -1 -0 -0 0 0 1 1 1 1 1 1 1 1 0 1 1 1 0 0 0 0 0 0 -0 -0 -0 0 0 0 0 0 0 0 0 0 -0 -0 -0 -0 -0 -0 -0 -0 -0 -0 -0 -0 -0 -0 -0 -0 -1 -1 -1 -1 -1 -1 -1 -1 -1 -1
-1 -1 -1 -1 -1 -1 -1 -1 -1 -1 -1 -1 -1 -1 -1 -1 -1 -1 -1 -1 -1 -1 -1 -1 -1 -1 -1 -1 -1 -0 -0 -0 -0 -0 0 0 0 0 0 1 1 1 0 0 0 0 0 -0 -0 -0 0 0 0 0 0 0 0 0 0 -0 -0 -0 -0 -0 -0 -0 -0 -0 -0 -0 -0 -0 -0 -0 -0 -0 -1 -1 -1 -1 -1 -1 -1 -1 -1 -1
-2 -2 -2 -1 -1 -1 -1 -1 -1 -1 -1 -1 -1 -1 -1 -1 -1 -1 -1 -1 -1 -1 -1 -1 -1 -1 -1 -1 -1 -1 -1 -1 -1 -0 -0 -0 -0 -0 0 0 0 0 0 0 0 0 0 -0 -0 -0 -0 0 0 0 0 0 0 -0 -0 -0 -0 -0 -0 -0 -0 -0 -0 -0 -0 -0 -0 -0 -0 -0 -0 -1 -1 -1 -1 -1 -1 -1 -1 -1 -1 -1
-2 -2 -2 -2 -2 -2 -2 -2 -2 -2 -2 -2 -2 -2 -2 -2 -2 -2 -2 -2 -2 -1 -1 -1 -1 -1 -1 -1 -1 -1 -1 -1 -1 -0 -0 -0 -1 -1 -0 -0 -0 0 0 0 0 0 -0 -0 -0 -0 -0 0 0 0 0 0 -0 -0 -0 -0 -0 -0 -0 -0 -0 -0 -0 -0 -0 -0 -0 -0 -0 -0 -0 -1 -1 -1 -1 -1 -1 -1 -1 -1 -1 -1
-2 -2 -2 -2 -2 -2 -2 -2 -2 -2 -2 -2 -2 -2 -2 -2 -2 -2 -2 -2 -2 -2 -2 -2 -2 -2 -2 -2 -2 -1 -1 -1 -1 -1 -1 -1 -1 -1 -1 -1 -0 -0 -0 -0 -0 -0 -1 -0 -0 -0 0 0 0 0 0 -0 -0 -0 -0 -0 -1 -0 -0 -0 -0 -0 -0 -0 -0 -0 -0 -0 -0 -0 -1 -1 -1 -1 -1 -1 -1 -1 -1 -1 -1 -1
-2 -2 -2 -2 -2 -2 -2 -2 -2 -2 -2 -2 -2 -2 -2 -2 -2 -2 -2 -2 -2 -2 -2 -2 -2 -2 -2 -2 -2 -2 -2 -1 -1 -1 -1 -1 -1 -1 -1 -1 -1 -0 -0 -0 -1 -1 -1 -1 -1 -0 -0 -0 0 0 0 -0 -0 -0 -0 -1 -1 -1 -0 -0 -0 -0 -0 -0 -0 -0 -0 -0 -0 -1 -1 -1 -1 -1 -1 -1 -1 -1 -1 -1 -1 -1
-2 -2 -2 -2 -3 -2 -2 -2 -2 -2 -2 -2 -3 -3 -3 -3 -2 -2 -2 -2 -2 -2 -2 -2 -2 -2 -2 -2 -2 -2 -2 -1 -1 -1 -1 -1 -1 -1 -1 -1 -1 -1 -1 -1 -1 -1 -1 -1 -1 -1 -0 -0 -0 -0 -0 -0 -0 -0 -0 -1 -1 -1 -1 -1 -1 -0 -0 -0 -0 -0 -0 -0 -1 -1 -1 -1 -1 -1 -1 -1 -1 -1 -1 -1 -1 -1
-3 -3 -3 -3 -3 -3 -3 -3 -3 -3 -3 -3 -3 -3 -3 -3 -3 -2 -2 -2 -2 -2 -2 -2 -2 -2 -2 -2 -2 -2 -2 -1 -1 -1 -1 -1 -1 -1 -1 -1 -1 -1 -1 -1 -1 -1 -1 -1 -1 -1 -0 -0 -0 -0 -0 -0 -1 -1 -1 -1 -1 -1 -1 -1 -1 -0 -0 -0 -0 -0 -0 -1 -1 -1 -1 -1 -1 -1 -1 -1 -1 -1 -1 -1 -1 -1
-3 -3 -3 -3 -3 -3 -3 -3 -3 -3 -3 -3 -3 -3 -3 -3 -3 -3 -2 -2 -2 -2 -2 -2 -2 -2 -2 -2 -2 -1 -1 -1 -1 -1 -1 -1 -1 -1 -1 -1 -1 -1 -1 -1 -1 -1 -1 -1 -1 -1 -1 -1 -1 -1 -1 -1 -1 -1 -1 -1 -1 -1 -1 -1 -0 -0 -0 -0 -0 -0 -1 -1 -1 -1 -1 -1 -1 -1 -1 -1 -1 -1 -1 -1 -1 -1
-3 -3 -3 -3 -3 -3 -3 -3 -3 -3 -3 -3 -3 -3 -3 -3 -3 -3 -3 -3 -3 -3 -3 -3 -2 -2 -2 -2 -1 -1 -1 -1 -1 -1 -1 -1 -1 -1 -1 -1 -1 -1 -1 -1 -1 -1 -1 -1 -1 -1 -1 -1 -1 -1 -1 -1 -1 -1 -1 -1 -1 -1 -1 -1 -1 -1 -1 -1 -1 -1 -1 -1 -1 -1 -1 -1 -1 -1 -1 -1 -1 -1 -1 -1 -1 -1
-3 -3 -3 -3 -3 -3 -3 -3 -3 -3 -3 -3 -3 -3 -3 -3 -3 -3 -3 -3 -3 -3 -3 -3 -3 -2 -2 -2 -2 -1 -1 -1 -1 -1 -1 -1 -1 -1 -1 -1 -1 -1 -1 -1 -1 -1 -1 -1 -1 -1 -1 -1 -1 -1 -1 -1 -1 -1 -1 -1 -1 -1 -1 -1 -1 -1 -1 -1 -1 -1 -1 -1 -1 -1 -1 -1 -1 -1 -1 -1 -1 -1 -1 -1 -1 -1
-3 -3 -3 -3 -3 -3 -3 -3 -3 -3 -3 -3 -3 -3 -3 -3 -3 -3 -3 -3 -3 -3 -3 -3 -3 -2 -2 -2 -2 -2 -2 -2 -2 -1 -1 -1 -1 -1 -1 -1 -1 -1 -1 -1 -1 -1 -1 -1 -1 -1 -1 -2 -2 -2 -2 -1 -1 -1 -1 -1 -1 -2 -2 -2 -1 -1 -1 -1 -1 -1 -1 -1 -1 -1 -1 -1 -1 -1 -1 -1 -1 -1 -1 -1 -1 -1
-3 -3 -3 -3 -3 -3 -3 -3 -3 -3 -3 -3 -3 -3 -3 -3 -3 -3 -3 -3 -3 -3 -3 -3 -2 -2 -2 -2 -2 -2 -2 -2 -2 -1 -1 -1 -1 -1 -1 -1 -1 -1 -1 -1 -1 -1 -1 -1 -1 -1 -1 -1 -1 -1 -1 -2 -2 -2 -2 -2 -2 -2 -2 -2 -2 -2 -2 -1 -1 -1 -1 -1 -1 -2 -2 -2 -2 -2 -2 -2 -1 -1 -1 -1 -1 -1
-3 -3 -3 -3 -3 -3 -3 -3 -3 -3 -3 -3 -3 -3 -3 -3 -3 -3 -3 -3 -3 -3 -3 -3 -2 -2 -2 -2 -2 -2 -2 -2 -2 -2 -2 -1 -1 -1 -1 -1 -1 -1 -1 -1 -1 -1 -1 -1 -1 -1 -1 -1 -1 -1 -1 -2 -2 -2 -2 -2 -2 -2 -2 -2 -2 -2 -2 -2 -2 -2 -1 -1 -1 -2 -2 -2 -2 -2 -2 -2 -2 -2 -1 -1 -1 -1
-4 -4 -4 -4 -3 -3 -3 -3 -3 -3 -3 -3 -3 -3 -3 -3 -3 -3 -3 -3 -3 -3 -3 -3 -3 -3 -2 -2 -2 -2 -2 -2 -2 -2 -2 -2 -1 -1 -1 -1 -1 -1 -1 -1 -1 -1 -1 -2 -2 -1 -1 -1 -1 -2 -2 -2 -2 -2 -2 -2 -2 -2 -2 -2 -2 -2 -2 -2 -2 -2 -2 -2 -2 -2 -2 -2 -2 -2 -2 -2 -2 -2 -2 -1 -1 -1
-4 -4 -4 -4 -3 -3 -3 -3 -3 -3 -3 -3 -3 -3 -3 -3 -3 -3 -3 -3 -3 -3 -3 -3 -3 -3 -3 -3 -3 -3 -3 -2 -2 -2 -2 -2 -1 -1 -1 -1 -1 -2 -2 -2 -2 -2 -2 -2 -2 -2 -2 -2 -2 -2 -2 -2 -2 -2 -2 -2 -2 -2 -2 -2 -2 -2 -2 -2 -2 -2 -2 -2 -2 -2 -2 -2 -2 -2 -2 -2 -2 -2 -2 -2 -2 -1
Height
753 752 752 752 751 750 748 748 748 747 745 745 744 744 743 742 742 741 741 740 739 739 738 737 737 736 735 734 734 733 733 733 732 731 731 730 729 729 728 728 727 727 727 726 726 726 726 725 725 725 725 725 725 725 724 724 724 724 724 724 724 724 723 723 723 723 722 722 722 721 721 720 720 719 719 719 718 718 718 717 717 716 716 716 715 714
753 752 751 751 750 748 746 746 747 746 744 743 742 742 741 740 739 739 738 738 737 737 736 735 734 734 733 732 732 731 731 730 730 729 728 728 727 727 726 725 725 724 724 723 723 723 723 723 723 723 723 722 722 722 722 722 722 722 722 722 722 721 721 721 721 720 720 719 719 719 718 718 718 718 717 717 716 716 715 715 714 714 714 713 713 713
752 751 750 750 749 748 746 745 745 744 743 742 741 740 739 738 738 737 736 736 735 734 734 733 733 732 731 730 729 729 728 728 727 727 726 726 725 724 723 723 723 722 722 721 721 721 721 720 720 720 720 720 720 720 720 720 719 719 719 719 719 719 719 718 718 718 718 717 717 716 716 716 716 716 715 715 714 714 713 713 713 712 712 711 711 710
752 750 748 748 748 746 745 744 743 742 742 740 739 738 738 737 736 735 734 733 733 732 732 731 731 730 729 728 727 727 726 726 725 724 724 723 723 722 721 721 720 720 719 719 718 718 718 718 718 718 718 718 718 717 717 717 717 717 717 717 717 716 716 716 716 715 715 715 714 714 714 713 713 713 713 713 712 712 712 711 711 710 710 709 709 708
750 749 748 747 746 744 743 742 741 740 739 738 737 736 736 735 734 733 732 732 731 730 730 729 729 728 727 726 725 724 724 723 723 722 722 721 720 720 719 718 718 718 717 717 717 716 716 716 716 715 715 715 715 715 715 715 715 714 714 714 714 714 714 713 713 713 713 713 712 712 712 712 711 711 711 711 710 710 710 709 709 708 708 707 707 706
749 748 747 746 744 743 741 740 740 739 738 736 735 734 733 733 732 731 730 729 729 728 728 727 726 726 725 724 723 723 722 721 721 720 719 718 718 717 717 716 716 715 715 715 714 714 714 713 713 713 713 713 713 713 713 712 712 712 712 712 712 712 712 711 711 711 711 711 710 710 710 709 709 709 709 708 708 708 708 707 707 706 706 705 704 704
746 746 745 744 742 741 739 738 738 737 736 735 733 732 731 730 730 729 728 727 727 726 725 725 724 723 723 722 721 721 720 719 718 718 717 716 716 715 714 714 713 713 713 713 712 712 712 711 711 711 711 711 710 710 710 710 710 710 710 710 710 709 709 709 709 709 708 708 708 708 708 708 707 707 707 707 706 706 705 705 704 704 703 703 702 702
744 743 743 742 740 739 738 736 736 735 734 733 732 730 729 728 728 727 726 725 725 724 723 722 722 721 720 720 719 719 718 717 716 716 715 714 713 713 712 712 711 711 711 710 710 710 709 709 709 709 709 709 708 708 708 708 708 708 708 708 708 708 707 707 707 707 707 706 706 706 706 706 706 705 705 705 704 704 703 703 702 702 701 701 700 699
743 741 740 739 738 737 735 733 733 733 733 732 731 729 728 727 726 725 724 723 723 722 722 721 719 718 718 718 717 717 716 715 714 714 713 712 711 711 710 710 709 709 708 708 708 708 707 707 707 707 707 707 707 706 706 706 706 706 706 706 705 705 705 705 705 704 704 704 704 704 704 704 704 703 703 703 702 702 701 701 700 699 699 698 698 697
740 739 737 736 736 735 733 731 729 729 730 730 729 728 727 725 724 723 722 721 720 720 720 719 718 716 715 715 715 715 714 713 713 712 711 710 710 709 708 708 707 707 706 706 706 706 705 705 705 705 705 705 704 704 704 704 704 704 703 703 703 703 703 703 703 703 703 703 702 702 702 702 702 701 701 701 700 700 699 698 698 697 696 696 695 695
737 736 735 733 732 732 731 728 727 727 727 727 727 725 724 724 723 722 720 718 718 718 718 717 716 715 714 713 713 713 712 711 710 709 709 708 708 707 707 706 705 705 705 704 704 703 703 703 703 703 703 703 703 702 702 702 702 702 702 702 701 701 701 701 701 701 701 701 700 700 700 700 699 699 699 698 698 697 697 696 695 695 694 693 693 692
734 733 732 730 729 728 727 726 725 725 725 725 724 723 721 721 721 720 719 717 715 715 715 714 713 713 712 712 711 710 710 709 708 708 707 706 706 705 704 704 703 703 703 702 702 701 701 701 701 701 701 701 700 700 700 700 700 700 700 700 700 699 699 699 699 699 699 699 698 698 698 698 697 697 696 696 695 695 694 694 693 693 692 691 690 690
731 730 728 727 726 725 724 724 723 723 723 723 722 720 719 718 718 718 717 715 713 713 713 712 711 710 710 710 709 708 708 707 706 706 705 704 703 703 703 702 701 701 700 700 699 699 698 698 698 698 698 698 698 698 698 698 698 698 698 698 698 698 698 697 697 697 697 697 696 696 696 695 695 694 694 693 693 693 692 691 691 690 689 689 688 687
728 727 726 725 723 723 723 722 722 721 720 719 718 718 716 716 716 715 714 713 711 711 711 710 709 708 707 707 707 707 706 705 704 704 703 702 702 701 701 700 699 699 698 698 697 697 696 697 697 696 696 696 696 696 696 696 696 696 696 696 696 696 695 695 695 695 695 694 694 694 693 693 693 692 692 691 691 690 690 689 688 688 687 687 686 685
725 724 723 722 721 721 720 720 719 718 717 716 716 715 714 714 713 713 713 711 709 709 709 708 707 705 705 704 704 704 704 703 703 702 701 700 699 699 699 699 698 697 697 696 695 694 694 695 694 694 694 693 693 693 693 693 693 693 693 693 693 693 693 693 693 693 693 693 692 692 692 691 691 690 690 689 689 688 688 687 686 686 685 684 683 683
723 722 721 720 719 718 718 717 717 715 714 713 713 713 713 712 711 711 710 709 708 708 707 706 705 703 702 701 702 702 702 701 701 700 699 697 696 697 698 698 696 695 694 694 693 693 692 692 692 692 692 691 691 691 692 692 692 692 692 692 692 692 692 691 691 691 691 691 690 690 690 689 689 688 688 687 687 686 686 685 684 684 683 682 682 681
721 720 719 718 717 715 715 714 714 713 712 711 711 711 710 709 709 708 708 707 707 706 705 705 704 702 699 698 698 699 699 699 698 698 697 695 694 694 695 696 695 693 693 692 691 690 690 690 690 690 689 689 689 689 689 690 690 690 690 690 690 690 689 689 689 689 689 688 688 688 688 687 687 686 686 685 685 684 683 683 682 682 681 680 679 679
718 718 717 715 714 713 712 712 711 710 710 709 709 708 708 707 707 707 706 705 705 704 703 703 702 701 698 697 696 697 698 697 697 696 695 693 692 692 693 694 693 692 691 690 689 688 688 688 688 688 688 687 687 688 688 688 688 688 688 688 688 688 688 688 687 687 687 687 686 686 686 685 685 684 684 683 683 682 682 681 680 680 679 678 678 677
715 714 713 713 711 710 709 709 708 708 708 707 707 706 706 705 705 704 704 703 703 702 702 701 699 698 697 695 694 694 696 696 695 694 693 692 691 690 691 692 691 690 689 688 687 687 687 687 686 686 686 686 686 686 686 686 686 686 686 686 686 686 686 686 685 685 685 685 684 684 684 683 683 683 682 681 681 680 679 679 678 678 677 676 675 675
713 712 711 710 709 708 707 706 706 705 705 705 704 704 703 703 702 702 701 701 700 700 699 698 697 695 694 693 692 692 694 694 693 693 691 690 689 689 689 690 689 688 687 685 685 685 685 685 684 684 684 684 684 684 684 684 684 684 684 684 684 684 684 684 684 683 683 683 683 682 682 681 681 680 680 679 679 678 678 677 676 676 675 674 673 673
710 709 709 708 708 706 704 703 703 703 703 703 702 702 701 700 700 699 698 698 698 697 696 695 694 692 692 691 690 690 692 692 692 691 690 689 687 687 687 688 688 686 685 683 682 683 683 683 682 682 682 682 682 682 682 683 683 683 683 683 682 682 682 682 682 682 681 681 681 680 680 679 679 678 678 678 677 676 676 675 674 674 673 672 671 671
709 708 707 706 706 704 703 702 701 701 701 700 700 699 698 697 697 696 695 695 694 694 693 692 690 689 689 689 688 688 689 690 690 689 689 687 685 684 685 686 685 684 683 681 680 680 681 681 680 679 679 680 680 680 680 681 681 681 681 681 680 680 680 680 680 680 679 679 679 678 678 678 677 677 676 676 675 674 674 673 673 672 671 670 669 669
707 705 704 703 703 702 701 699 699 698 698 698 697 696 695 694 693 693 692 692 691 690 689 688 687 687 687 686 686 686 687 687 688 688 687 686 683 682 683 684 683 682 680 678 678 678 679 678 678 677 677 678 678 678 678 679 679 679 679 678 678 678 678 678 678 678 678 678 677 677 677 676 676 675 675 674 673 673 672 671 671 670 669 668 668 667
704 702 701 700 699 699 698 697 696 696 695 695 694 693 692 691 690 689 689 688 688 687 686 685 684 684 683 683 683 683 684 685 685 686 685 683 681 680 681 682 682 680 678 676 677 677 677 676 675 675 675 676 676 676 677 677 677 677 677 677 677 677 677 676 676 676 676 676 675 675 675 674 674 673 673 673 672 671 670 670 669 668 667 667 666 665
702 701 699 698 698 697 696 695 694 693 693 692 691 690 689 688 687 686 685 684 684 683 683 683 682 681 681 681 682 681 681 682 683 683 683 681 679 678 678 679 679 678 676 674 675 675 675 674 673 673 673 673 674 674 674 675 675 675 675 675 675 675 675 675 674 674 674 674 674 673 673 673 673 672 671 671 670 670 669 668 667 666 666 665 664 663
701 700 698 697 696 695 694 693 692 691 691 690 689 688 687 686 684 683 681 681 680 680 680 680 679 678 679 679 679 679 679 680 680 680 680 679 678 676 675 677 677 676 674 673 673 673 673 672 671 671 671 671 672 672 672 673 673 673 673 673 673 673 673 673 673 673 673 673 672 672 672 671 671 670 670 669 669 668 668 667 666 665 664 663 662 662
699 698 697 695 694 693 692 691 690 689 688 688 687 686 685 684 682 680 678 678 678 678 678 677 677 677 677 677 677 677 677 678 678 678 678 678 676 674 673 674 674 674 673 672 671 671 671 670 669 669 669 669 669 670 670 670 671 671 671 671 671 671 671 671 671 671 671 671 671 670 670 670 669 669 669 668 668 667 666 665 665 664 663 662 661 660
696 695 694 693 692 690 689 688 687 686 686 685 684 684 683 681 679 677 676 676 676 676 675 675 675 674 674 674 674 674 675 675 675 675 676 676 674 672 671 672 672 673 672 670 669 669 669 668 668 668 668 668 668 668 668 668 668 669 669 669 669 669 669 670 670 669 669 669 669 669 669 668 668 668 667 667 666 666 665 664 663 663 662 660 659 658
693 693 692 691 690 688 687 686 685 684 683 683 682 682 681 679 678 676 675 675 674 674 673 673 673 673 673 672 672 672 672 673 673 673 674 674 672 670 669 670 670 670 670 669 668 667 667 666 666 666 666 666 666 666 666 666 666 667 667 667 668 668 668 668 668 668 668 668 668 668 667 667 667 666 666 665 665 664 664 663 662 661 660 659 658 657
691 690 689 689 688 687 686 684 683 682 682 681 680 679 678 678 676 675 674 673 673 672 671 670 670 671 671 671 670 670 669 669 670 671 672 672 669 668 668 668 668 668 669 669 668 666 664 663 663 664 663 663 663 663 663 664 664 664 665 665 665 666 666 666 666 666 666 666 666 666 666 666 665 665 665 664 664 663 663 662 661 660 659 658 657 656
690 689 688 687 686 685 684 683 682 681 680 679 679 678 677 676 675 674 673 672 671 670 669 669 669 669 669 669 669 668 666 667 668 670 670 669 667 666 666 666 666 666 667 668 667 665 662 661 661 661 661 661 661 662 662 662 663 663 663 663 664 664 664 665 665 665 665 665 665 664 664 664 664 664 663 663 663 662 662 661 660 659 658 657 656 655
688 687 686 685 684 683 682 681 680 679 679 678 677 677 676 675 674 673 672 671 670 669 668 668 667 667 668 668 668 666 665 666 667 668 669 668 665 663 664 664 664 663 664 665 665 664 662 659 658 659 659 660 660 660 660 661 661 662 662 662 662 662 663 663 663 663 663 663 663 663 663 663 663 662 662 662 661 661 660 660 659 658 657 656 655 654
687 686 685 684 683 682 681 680 679 678 677 677 676 675 674 674 673 672 671 671 670 670 669 668 667 666 666 666 666 666 665 665 665 666 667 666 664 662 662 662 662 662 662 662 663 662 661 659 658 658 658 658 658 659 659 659 660 660 661 661 661 661 661 662 662 662 662 662 662 662 662 661 661 661 661 660 660 660 659 659 658 657 656 655 654 653
685 684 683 683 681 680 679 679 678 677 676 675 674 673 673 672 671 671 670 669 669 669 668 668 667 667 666 665 665 664 663 663 663 664 665 664 663 661 660 660 660 660 660 660 660 660 659 658 657 657 657 657 657 658 658 658 658 659 659 659 659 659 660 660 660 660 660 660 660 660 660 660 660 660 659 659 659 658 658 657 657 656 655 654 653 652
684 683 682 681 680 679 678 678 677 676 675 674 673 673 672 671 670 669 668 668 668 667 667 667 667 666 665 664 663 662 660 660 661 662 663 662 660 659 658 657 657 658 658 658 658 658 657 656 656 656 656 656 655 656 656 657 657 657 658 658 658 658 658 658 659 659 659 659 659 659 659 658 658 658 658 658 657 657 657 656 656 655 654 653 652 651
683 682 681 680 679 678 677 676 675 675 674 673 672 671 670 670 669 668 667 666 666 665 665 665 664 664 664 663 662 660 659 659 659 660 660 659 658 657 656 655 655 656 656 656 655 655 655 654 654 654 655 654 654 654 654 655 655 656 656 656 656 656 657 657 658 658 658 658 658 658 657 657 657 657 657 657 656 656 656 655 655 654 653 653 652 651
682 681 680 679 678 678 676 675 674 673 673 672 671 670 669 668 668 667 666 665 664 664 663 663 662 662 662 662 661 659 658 658 658 658 658 657 657 656 655 653 653 654 654 654 653 653 653 653 652 652 653 653 652 652 652 653 653 654 654 654 654 655 655 656 656 656 656 656 656 656 656 656 656 656 656 655 655 655 654 654 653 653 652 651 650 649
681 680 678 678 677 677 675 674 673 673 672 671 669 668 668 667 666 665 664 663 663 663 662 661 661 660 659 659 658 658 657 656 656 656 655 655 655 655 654 652 652 652 652 652 652 651 651 651 650 650 650 650 650 650 650 651 652 652 652 653 653 653 654 654 655 655 655 655 655 655 655 655 655 655 654 654 654 654 653 653 652 652 651 650 649 648
679 678 678 677 676 675 674 673 672 671 670 669 668 667 666 665 664 664 663 662 662 661 660 660 659 658 657 657 656 655 654 654 653 653 653 653 653 652 652 650 649 649 649 649 649 649 649 648 648 648 648 648 648 648 649 649 650 650 651 651 652 652 653 653 653 653 654 654 654 654 654 654 654 654 653 653 653 653 652 652 651 651 650 649 648 647
678 677 676 676 675 674 673 672 671 670 669 668 667 666 665 664 663 662 661 661 660 659 658 658 657 656 655 654 653 653 652 651 651 650 650 650 649 649 649 648 647 646 646 646 646 646 646 646 645 646 646 646 646 646 647 648 648 649 650 650 650 651 651 652 652 652 652 653 653 653 653 653 653 653 653 653 652 652 652 651 651 650 649 649 648 647
677 676 675 674 673 673 672 671 670 669 668 667 665 664 663 663 661 660 659 659 658 658 657 656 655 654 653 652 651 650 650 649 648 648 647 647 646 646 646 645 645 644 644 643 643 643 643 643 643 644 644 644 645 645 645 646 647 648 648 649 649 649 650 650 651 651 651 651 651 652 652 652 652 652 652 652 651 651 651 651 650 649 649 648 648 647
676 675 674 673 672 671 670 669 668 668 667 666 664 663 662 662 661 660 658 658 657 656 655 655 654 653 651 650 649 648 647 647 646 645 645 644 644 644 643 643 642 642 641 641 640 640 640 641 642 642 643 643 643 644 644 644 645 646 647 647 648 648 649 649 649 650 650 650 650 650 651 651 651 651 651 651 650 650 650 650 649 649 648 648 648 647
675 674 673 672 671 670 669 668 667 666 665 664 663 663 662 661 660 659 658 657 656 655 654 653 653 652 650 648 647 646 645 644 643 643 643 642 642 642 641 640 640 639 639 638 638 638 638 639 640 640 641 641 642 642 642 643 643 644 645 646 647 647 648 647 648 648 648 649 649 649 649 649 649 650 650 650 649 649 649 649 649 648 648 648 647 646
673 673 672 671 670 669 668 667 666 665 664 663 662 661 660 660 659 658 657 656 655 654 653 653 651 650 649 647 645 644 643 642 642 641 641 640 640 639 639 638 638 637 637 637 637 637 637 638 638 638 639 640 640 641 641 641 642 643 643 644 645 646 646 646 646 647 647 647 648 648 648 648 648 649 649 649 649 648 648 648 648 648 648 647 647 646
672 671 670 669 668 668 666 665 664 664 663 662 661 660 659 658 658 657 656 655 654 653 652 651 650 649 647 646 644 643 642 641 640 639 639 638 638 638 637 637 636 636 635 635 635 636 636 637 637 637 638 638 639 639 640 640 641 641 642 643 643 644 644 644 645 645 646 646 646 647 647 648 648 648 648 648 648 648 648 648 648 647 647 647 646 645
671 670 669 668 667 666 665 664 664 663 662 661 660 659 658 657 657 656 655 654 653 652 651 650 649 648 646 644 643 642 641 640 639 638 637 637 637 636 636 635 635 635 634 634 634 635 635 635 636 636 637 637 638 638 638 639 640 640 641 642 642 643 643 643 643 644 644 645 645 646 646 647 647 647 647 647 647 647 647 647 647 647 647 646 646 645
670 669 668 667 666 665 664 663 663 662 661 660 658 658 657 656 655 654 653 653 652 651 650 649 648 647 645 644 643 642 640 639 638 637 636 636 635 635 634 634 633 633 633 633 633 633 633 634 634 635 635 636 636 637 637 638 638 639 640 640 641 641 642 642 642 643 643 644 644 645 645 646 646 646 646 646 646 646 646 646 647 647 646 646 646 645
669 668 667 666 665 664 663 663 662 661 659 658 657 656 655 654 654 653 652 651 650 649 648 648 647 645 644 643 642 641 639 638 637 636 635 634 634 633 633 632 632 632 632 632 632 632 632 632 633 633 634 635 635 636 636 637 637 638 638 639 640 640 640 641 641 642 642 643 643 644 644 645 645 645 645 645 645 645 646 646 646 646 646 646 645 645
669 668 667 666 664 663 662 661 660 659 658 657 656 655 654 653 652 652 650 649 649 648 647 646 645 644 643 641 640 639 638 637 636 635 634 633 633 632 632 631 631 631 631 631 631 631 631 631 632 632 633 633 634 635 635 636 636 637 637 638 638 639 639 639 640 641 641 642 642 643 643 643 644 644 644 645 645 645 645 645 645 646 646 646 645 645
668 667 666 665 663 662 661 660 659 658 657 656 655 653 652 651 650 650 649 649 648 647 647 645 644 643 642 640 639 638 637 636 635 634 633 632 632 631 631 630 630 630 630 630 630 630 630 631 631 631 632 633 633 634 634 635 635 636 636 637 637 638 638 638 639 640 640 641 641 642 642 643 643 643 644 644 644 644 644 645 645 645 645 645 645 645
667 666 665 663 663 661 660 659 658 657 656 655 654 653 651 650 650 649 648 648 647 646 645 644 643 642 641 639 638 637 636 635 634 633 632 631 631 630 630 630 629 629 629 629 629 629 630 630 631 631 631 631 632 633 633 634 635 635 635 636 636 637 637 638 638 639 639 640 640 641 641 642 642 642 643 643 644 644 644 644 644 645 645 645 645 645
Wind_Speed
27 27 26 26 26 26 26 25 25 26 27 27 27 28 29 29 29 30 30 31 31 31 31 32 32 33 33 33 33 33 33 32 32 32 32 32 32 32 32 32 32 32 32 32 31 31 31 31 31 31 31 30 30 29 29 28 28 28 28 28 28 28 28 28 28 28 28 28 28 28 28 28 28 29 29 29 29 30 31 31 31 31 32 33 34 34
25 25 25 24 25 25 25 25 24 25 26 27 28 28 29 29 30 30 30 31 31 31 31 31 31 32 32 33 33 33 32 32 32 31 31 32 32 32 32 32 32 32 32 31 31 31 30 30 30 30 30 30 30 30 29 29 29 29 28 28 28 28 29 29 29 28 28 28 28 28 27 27 28 28 28 29 29 30 30 30 31 31 32 32 33 34
25 24 24 23 23 24 25 25 25 25 27 28 28 29 29 29 30 30 30 29 29 29 29 30 30 30 31 32 32 32 31 31 31 31 31 31 31 31 32 32 32 32 31 31 31 30 30 30 30 30 30 30 30 30 30 29 29 29 29 29 29 29 29 29 29 28 28 28 27 27 27 27 27 27 28 28 28 29 29 30 30 31 32 32 32 33
23 23 23 23 23 24 25 25 26 26 27 27 28 29 29 29 29 29 29 29 29 29 29 30 30 30 30 31 32 32 31 30 30 30 30 30 31 31 31 31 31 31 31 31 31 30 30 30 30 30 30 30 30 30 30 30 29 29 29 29 29 29 29 29 29 28 28 27 27 27 26 26 26 26 27 27 28 29 29 29 30 31 31 32 32 32
22 22 23 22 22 23 24 25 25 26 26 26 27 27 28 28 28 28 29 29 29 29 29 29 30 30 30 30 31 31 31 30 30 30 30 31 31 31 31 31 31 31 31 31 30 30 30 30 30 30 30 30 30 30 30 29 29 29 29 29 28 28 28 28 28 28 28 28 27 27 26 26 26 26 27 27 28 28 29 29 30 30 31 31 32 32
23 23 23 22 22 23 23 24 24 24 24 25 26 26 26 27 27 27 28 28 28 28 29 29 29 29 30 30 31 31 31 31 31 31 31 31 31 31 31 31 31 30 30 30 30 30 30 30 30 30 30 30 30 29 29 29 29 28 28 28 28 28 28 27 27 27 27 26 26 26 25 26 26 26 27 27 28 28 29 29 30 31 31 32 32 32
24 23 22 22 23 23 23 23 24 24 23 23 24 24 24 25 25 26 27 27 28 28 28 29 29 29 29 30 30 30 30 30 30 30 30 30 30 30 30 30 30 29 29 29 29 29 29 29 29 29 29 29 29 29 29 29 28 28 28 28 28 27 27 27 26 26 26 25 25 25 25 25 25 25 26 27 28 28 29 30 31 31 32 32 32 32
23 23 23 22 22 23 23 23 24 24 23 22 22 22 22 23 23 24 25 26 26 26 27 27 27 28 28 28 29 29 28 28 29 29 29 29 28 28 28 28 28 28 28 28 28 28 28 28 28 28 28 28 28 28 28 28 28 28 28 27 27 27 26 26 26 25 25 24 24 24 24 24 25 25 26 26 27 28 29 30 31 31 32 32 33 33
24 24 24 23 23 22 23 24 25 25 23 22 21 21 22 23 23 24 24 24 24 24 24 24 25 26 27 27 27 27 27 27 27 28 28 28 28 28 28 28 27 27 27 27 27 27 27 27 27 27 27 27 27 27 27 27 27 27 27 27 27 26 26 25 25 25 24 24 24 24 24 25 25 25 26 26 27 27 28 29 30 31 31 32 32 33
25 25 25 25 25 23 23 24 26 26 24 23 22 22 22 22 23 23 23 24 24 23 23 23 24 25 25 26 25 25 26 26 27 27 27 27 28 28 28 28 27 27 27 27 27 27 27 27 27 27 27 27 27 27 27 27 27 27 27 26 26 26 25 25 25 24 24 24 24 24 24 25 25 25 25 25 26 26 27 28 29 30 30 31 32 32
25 25 25 25 25 24 24 24 25 25 23 23 23 23 24 23 22 21 21 23 24 24 23 23 23 23 23 24 24 24 24 25 26 26 27 27 27 28 28 28 28 28 28 27 27 27 27 27 27 27 26 26 26 26 27 27 27 27 26 26 26 25 25 24 24 23 23 23 23 24 24 24 24 24 25 25 25 25 26 27 27 28 29 30 31 31
24 24 23 23 23 23 23 23 23 22 21 21 20 20 22 22 22 21 20 21 23 23 22 22 22 22 22 23 23 23 23 24 24 25 26 26 27 27 27 27 28 28 27 27 27 27 27 27 26 26 26 25 25 25 25 25 25 25 25 25 24 24 23 23 23 23 23 23 23 23 24 24 24 24 24 25 25 25 25 26 26 27 28 29 29 30
24 23 22 22 22 21 21 21 20 20 19 18 17 17 18 21 21 21 20 21 22 22 22 22 22 23 23 23 23 22 22 23 24 24 25 25 26 26 27 27 27 27 27 27 27 28 28 27 26 25 25 25 25 24 24 24 24 24 24 24 23 23 23 23 23 23 23 23 23 24 24 24 24 24 24 25 25 25 25 25 26 26 27 27 28 29
23 22 21 20 20 20 19 19 17 17 19 19 20 20 21 21 20 20 19 20 22 22 22 21 22 23 23 23 23 22 22 23 23 24 25 26 26 26 26 26 27 27 27 28 28 29 29 28 27 26 26 26 26 26 26 26 26 25 25 24 23 23 23 23 23 23 23 23 23 24 24 24 24 24 25 25 25 25 25 26 26 26 26 27 27 28
20 19 17 16 16 18 18 18 18 19 21 22 22 22 22 21 20 19 19 19 21 22 21 21 22 23 23 23 22 22 22 22 22 23 24 26 26 26 26 26 26 28 28 28 29 29 29 28 27 27 28 28 28 28 28 28 27 26 25 24 24 23 23 23 23 23 23 23 23 24 24 24 24 25 25 25 25 25 25 26 26 26 26 26 27 28
19 17 14 13 15 18 19 20 19 20 22 22 22 21 20 20 20 20 19 19 20 20 18 17 17 17 20 21 21 20 21 21 22 22 23 25 26 26 24 24 25 27 28 28 28 29 29 28 28 28 29 29 29 29 28 27 26 26 25 24 24 24 23 23 23 23 23 23 23 24 24 24 25 25 25 25 25 26 26 26 26 26 26 26 26 27
17 16 15 14 16 18 21 21 21 21 21 21 21 20 20 19 20 20 19 19 18 17 16 13 8 5 10 17 19 17 17 18 19 20 21 23 24 25 23 23 24 25 27 28 28 28 28 28 28 28 29 29 29 28 27 26 25 25 24 24 24 23 23 23 23 23 23 23 23 24 24 24 25 25 25 25 25 25 26 26 26 26 25 26 26 26
15 15 16 15 16 18 20 20 20 21 21 20 20 20 20 20 20 20 20 19 18 16 15 14 10 5 4 10 15 16 14 15 17 18 19 21 23 23 22 22 23 25 26 27 28 28 28 28 28 28 29 29 28 27 26 25 24 24 24 23 23 23 23 23 23 23 23 23 24 24 24 24 24 24 24 24 25 25 25 26 26 26 26 26 26 26
17 17 16 16 17 18 19 20 20 20 20 20 19 19 19 20 21 20 20 20 19 18 16 14 14 13 13 15 18 19 17 16 16 17 16 18 21 22 21 20 22 24 26 27 28 28 27 28 28 29 29 28 28 27 26 25 24 24 24 23 23 23 23 23 23 23 23 24 24 24 24 24 24 24 24 24 25 25 25 25 26 26 26 26 26 25
19 19 17 16 16 17 17 19 20 21 21 21 20 19 19 20 20 20 20 20 20 20 19 17 17 18 19 21 23 22 19 17 17 16 16 18 20 22 21 20 20 23 25 27 28 28 27 27 28 29 29 29 28 27 26 25 24 24 24 24 24 23 23 23 23 23 23 23 23 24 23 23 23 24 24 24 24 24 25 25 25 26 26 26 26 25
19 19 20 20 18 17 17 18 20 21 22 21 20 20 20 20 20 20 20 20 20 20 20 19 20 22 22 22 23 22 19 17 16 15 14 15 18 20 20 19 20 22 25 27 28 28 27 27 28 29 29 29 28 27 26 25 24 24 24 24 23 23 23 23 23 23 23 23 23 23 23 23 23 23 24 24 24 24 24 24 25 25 26 26 25 25
23 23 24 24 23 22 21 22 24 24 23 22 21 20 20 20 20 20 21 21 20 20 20 21 23 25 25 24 24 23 20 18 17 15 13 12 15 19 20 18 19 21 24 26 27 27 26 26 27 28 29 28 27 26 25 24 24 24 23 23 23 23 23 23 23 23 23 23 23 23 23 23 23 23 23 23 23 24 24 24 24 24 25 25 25 25
27 27 27 27 26 26 26 26 27 26 25 24 23 23 22 22 22 22 23 22 22 22 24 25 27 27 26 24 24 23 21 19 18 17 14 8 12 19 20 18 17 19 23 25 26 26 25 26 27 28 28 27 27 26 25 24 23 23 23 23 23 23 23 22 22 22 22 22 22 22 22 22 22 22 23 23 23 23 23 23 24 24 24 24 25 25
27 28 28 28 28 28 28 28 28 28 27 27 26 27 28 28 28 28 27 26 26 25 26 26 25 25 24 23 22 21 21 20 19 18 15 12 14 19 20 18 17 19 23 25 25 25 25 26 27 27 27 27 26 25 24 24 23 23 23 23 23 22 22 22 22 22 22 22 22 21 21 22 22 22 22 22 22 23 23 23 23 23 24 24 24 24
26 26 27 27 28 29 29 29 29 29 29 28 28 29 30 31 31 31 31 29 27 26 24 23 20 18 18 18 18 18 20 20 19 18 16 14 16 19 20 19 18 19 22 24 25 24 24 25 26 27 27 26 26 25 24 24 23 23 23 23 22 22 22 22 21 21 21 21 21 21 21 21 21 21 21 21 22 22 22 22 23 23 23 23 23 24
26 28 28 29 30 31 31 31 31 31 31 30 30 30 29 29 30 29 28 26 24 22 20 16 13 12 15 15 15 16 18 18 19 19 18 15 15 17 20 19 18 19 21 23 24 23 23 24 25 26 26 26 26 25 24 24 23 23 22 22 22 22 22 21 21 21 21 21 20 20 20 20 20 20 20 21 21 21 21 21 22 22 22 23 23 23
26 28 29 30 31 32 32 33 33 32 32 32 32 32 32 31 28 25 21 20 20 19 16 9 6 8 12 11 12 15 16 16 17 18 19 17 15 15 19 19 19 19 20 22 23 22 22 23 24 24 25 25 25 25 25 24 23 23 22 22 22 21 21 21 21 20 20 20 20 19 19 19 19 19 19 20 20 20 20 20 20 21 21 22 22 22
26 27 28 29 29 30 31 31 31 31 31 31 32 33 33 32 28 22 16 15 16 16 14 8 5 5 5 6 10 14 15 15 15 16 17 16 14 14 19 20 19 19 19 20 21 21 21 22 23 24 24 24 25 25 25 25 24 23 22 22 21 21 21 20 20 20 19 19 19 19 18 18 18 18 18 19 19 19 19 19 20 20 21 21 22 23
24 24 24 25 25 26 27 27 28 28 29 29 30 31 31 30 27 22 18 15 13 11 10 9 7 6 5 8 11 13 14 15 16 16 16 14 13 15 20 20 19 18 17 16 17 19 20 21 22 23 23 24 24 24 25 24 24 23 22 22 21 20 20 19 19 19 18 18 18 18 17 17 17 17 17 17 17 18 18 18 19 20 21 21 22 22
21 21 21 21 21 22 23 24 24 25 26 26 27 27 28 28 27 26 24 21 17 13 11 9 9 9 8 7 7 7 9 13 14 14 14 13 13 15 19 18 18 18 16 12 9 10 13 18 20 21 21 22 22 22 23 22 22 22 21 21 20 19 19 18 17 17 17 17 17 17 17 17 16 16 16 16 16 16 17 18 18 19 20 21 21 21
19 18 18 19 20 21 21 21 21 22 22 22 22 22 23 23 24 25 25 23 20 17 15 13 12 11 9 4 1 1 3 10 13 13 13 12 13 16 18 17 17 18 17 12 4 1 5 10 13 15 16 17 18 19 19 19 19 19 18 18 18 18 17 16 15 15 15 15 16 16 16 16 16 15 15 15 15 16 16 17 17 18 19 20 20 20
18 18 19 20 20 20 20 20 20 20 20 20 20 20 19 19 19 19 19 19 18 17 16 14 13 11 10 6 4 4 5 13 16 15 14 13 15 17 18 17 16 17 17 17 12 6 4 3 7 11 12 13 14 15 15 15 15 15 15 16 16 16 15 15 14 15 15 16 16 16 15 15 15 15 15 15 15 16 16 17 17 17 18 18 19 19
19 19 20 20 20 20 19 19 19 19 19 19 19 19 19 18 18 18 18 18 18 17 16 14 13 12 13 13 13 13 16 19 20 19 18 17 16 16 17 16 16 16 16 18 18 15 10 8 10 13 12 12 12 13 13 14 14 14 14 15 15 16 15 15 15 15 16 16 16 15 15 15 15 15 16 16 16 16 16 16 16 16 17 18 18 19
19 20 20 20 20 19 19 19 19 19 19 19 19 19 19 19 19 19 19 19 19 19 18 16 15 15 16 16 17 19 22 23 23 21 20 20 18 16 15 15 15 15 15 15 16 16 15 15 15 14 13 13 13 14 14 14 14 15 15 15 16 16 16 16 16 16 16 15 15 15 15 15 15 16 16 17 17 17 17 16 16 17 17 18 18 19
19 19 19 19 19 19 20 20 20 19 19 19 19 18 18 18 19 19 19 19 19 19 19 18 17 18 18 18 18 19 22 24 23 21 19 20 19 16 15 15 15 15 14 14 13 12 12 15 16 14 12 12 14 15 15 15 15 16 16 17 17 17 17 16 16 15 15 15 15 15 15 15 15 16 17 17 18 17 16 15 16 17 18 18 18 18
19 19 19 19 19 19 20 20 20 20 20 20 19 19 19 19 20 20 20 20 20 20 20 19 19 19 20 21 20 20 21 20 19 18 18 19 19 16 14 14 15 16 15 15 14 12 10 12 14 14 12 10 10 12 14 15 15 15 16 17 17 17 17 16 15 14 14 14 15 15 15 15 15 16 17 17 17 17 15 15 16 17 17 17 16 16
18 18 19 19 19 19 19 20 20 20 20 21 21 21 21 21 21 22 22 21 21 21 21 20 20 21 22 23 23 23 23 22 22 21 21 21 21 19 17 17 17 17 17 16 16 15 13 10 9 10 11 10 9 10 12 13 13 14 16 16 16 16 15 15 14 14 14 14 15 14 14 14 15 16 16 17 17 17 17 17 17 17 17 16 15 15
17 18 18 18 18 18 19 19 20 21 21 21 22 22 22 23 23 23 23 22 22 21 21 21 22 22 23 23 24 24 24 24 23 22 21 22 23 23 21 21 20 20 20 20 20 19 16 9 5 5 4 9 12 13 12 12 12 13 14 15 15 15 15 14 13 13 14 14 14 14 14 14 14 15 16 17 17 18 18 18 18 18 17 16 15 15
18 18 18 18 18 18 19 19 20 22 22 23 24 24 24 24 24 23 23 23 22 22 21 22 22 23 23 24 24 24 23 23 22 21 21 22 23 24 23 22 22 22 23 23 23 22 19 13 8 5 3 5 9 12 13 13 12 13 13 14 14 14 14 14 13 13 13 13 13 13 13 13 14 15 16 16 17 18 18 18 18 18 17 17 17 16
17 18 18 18 18 19 19 20 21 23 24 25 25 25 24 24 24 23 23 23 22 22 22 22 22 23 24 24 24 24 24 23 23 23 23 23 23 23 23 23 23 23 24 24 24 23 20 17 14 12 11 9 8 9 10 12 12 12 12 11 12 13 14 13 13 13 12 12 12 12 13 13 13 14 15 15 16 16 17 17 17 16 16 16 17 17
17 17 18 18 19 19 20 21 23 24 24 25 25 24 24 23 22 22 21 21 21 21 21 21 22 22 22 22 23 23 23 23 24 24 24 24 23 22 22 23 24 24 24 24 24 23 21 18 16 15 14 13 13 12 11 12 12 12 11 11 11 12 12 12 12 12 12 12 12 12 12 12 13 13 13 14 14 15 15 15 16 15 15 14 14 15
16 17 18 19 20 21 22 23 24 23 23 22 22 22 22 21 20 19 19 19 19 19 20 20 20 20 20 20 21 21 22 22 23 23 24 23 23 22 22 23 24 25 24 23 22 22 21 19 17 15 15 15 14 12 12 13 13 12 12 12 12 12 11 12 12 12 11 11 11 11 11 12 12 12 13 13 13 14 14 14 14 14 14 13 13 13
17 18 19 20 21 22 23 23 22 21 21 20 20 20 20 20 19 19 19 18 18 18 19 19 19 18 18 19 19 20 21 22 22 22 23 23 23 23 23 23 25 25 24 22 20 18 18 18 17 16 17 16 15 13 12 12 12 12 13 13 12 10 8 9 11 11 11 11 11 11 11 12 12 12 12 13 13 13 13 13 13 13 13 13 13 13
18 19 20 20 21 21 21 21 20 19 18 18 18 18 19 20 20 19 19 18 18 18 18 18 18 18 17 18 18 19 20 20 21 21 21 21 21 21 21 22 24 25 24 21 17 15 14 15 16 17 17 16 15 14 13 13 12 12 13 14 14 13 11 11 11 12 11 12 12 12 12 12 12 12 12 13 13 13 13 13 13 12 12 12 12 13
18 19 19 19 19 19 19 18 18 18 17 17 17 18 19 19 19 19 18 18 18 18 18 18 17 16 15 16 16 17 18 19 19 19 19 19 18 18 19 20 22 23 23 21 19 16 13 12 13 15 16 16 15 14 14 13 13 12 13 14 15 16 17 16 15 14 13 13 13 13 13 12 12 12 13 13 14 14 14 13 13 12 11 11 11 12
17 17 17 17 17 16 16 16 16 17 17 17 18 18 18 19 19 19 19 19 18 18 18 18 16 14 13 14 15 16 17 18 18 19 19 19 19 19 18 19 19 20 21 21 20 19 18 16 14 13 13 13 13 14 15 14 13 12 13 13 14 15 16 17 17 16 15 15 14 14 13 13 13 13 13 14 14 14 14 13 12 11 10 10 10 11
16 16 16 16 15 15 15 16 17 17 18 18 18 18 19 20 20 20 20 19 19 18 17 16 15 14 14 15 16 16 16 17 18 19 19 19 19 18 18 18 18 19 19 20 20 21 21 20 18 15 13 11 10 11 13 14 14 14 13 14 14 15 15 16 16 16 16 15 15 14 14 13 13 13 13 14 14 14 13 13 11 10 9 9 9 10
14 15 15 15 16 16 16 17 18 17 17 17 18 18 19 20 20 20 19 18 17 16 15 14 14 14 15 17 17 17 16 16 17 18 18 18 18 17 17 17 17 17 18 19 20 20 21 20 19 17 15 12 10 9 11 12 14 15 15 15 15 15 15 15 16 16 15 15 15 14 14 13 13 12 13 12 12 12 12 11 11 9 9 8 8 8
15 15 15 16 16 16 16 17 17 17 16 17 17 18 20 20 20 18 16 15 14 13 13 13 13 14 14 15 16 16 16 16 16 17 17 17 17 16 15 15 15 16 17 17 18 18 18 18 18 18 17 16 13 11 10 11 12 14 15 15 15 15 15 15 15 14 14 14 13 13 13 14 14 13 12 11 11 11 11 11 10 9 8 7 7 7
15 16 16 16 16 16 16 16 16 16 16 16 17 18 18 18 17 16 14 13 13 13 13 13 13 13 14 14 15 16 17 17 17 17 17 17 16 14 14 13 13 13 13 13 13 13 12 12 13 15 17 17 16 14 12 11 11 12 13 14 14 14 14 14 13 13 13 12 12 12 13 13 13 13 12 11 10 10 11 11 10 9 8 7 6 6
15 15 15 15 15 15 15 16 15 15 16 16 17 16 16 15 14 14 14 15 15 15 15 15 15 15 14 15 16 17 17 16 15 16 16 16 15 14 13 13 13 11 9 7 6 6 4 3 5 8 12 16 17 16 15 13 12 11 10 12 13 13 13 12 12 12 12 11 11 11 12 12 13 13 12 11 9 9 9 9 9 9 8 7 6 6
Wind_Direction
284 286 288 290 291 291 289 288 289 289 289 288 288 287 286 286 285 285 285 284 284 284 283 283 283 282 282 282 282 281 281 281 281 281 282 282 282 282 282 282 282 281 281 280 280 279 278 277 277 277 276 276 276 276 276 276 277 278 278 278 278 278 278 278 278 277 277 278 278 279 280 281 281 281 281 281 281 281 281 280 279 278 278 278 278 279
286 288 289 290 291 290 289 289 288 288 288 288 287 286 286 286 285 285 284 283 282 282 281 281 281 281 281 281 281 281 280 280 280 280 280 281 281 282 282 282 282 282 281 280 280 279 278 277 277 276 276 276 276 275 276 276 276 277 277 277 277 277 277 277 277 277 277 277 276 276 277 278 279 280 281 282 282 283 283 283 283 281 280 278 278 277
288 289 288 289 288 288 287 288 287 286 286 286 285 285 284 284 284 283 282 281 280 280 279 279 279 279 280 280 280 280 280 279 279 279 279 280 280 281 281 281 282 282 281 281 280 279 278 277 277 276 276 275 275 275 275 276 276 276 277 277 277 277 277 278 278 278 278 278 278 277 277 277 278 280 281 282 283 283 284 284 284 283 282 281 280 278
286 287 287 288 287 285 284 285 285 284 283 283 283 283 282 282 281 280 280 279 279 279 278 278 278 278 279 279 279 279 279 279 279 279 279 279 279 280 280 280 281 281 281 281 280 280 279 278 277 277 276 275 275 275 275 276 276 276 276 277 277 278 278 278 279 279 280 280 280 280 279 279 280 280 281 282 283 283 283 283 282 282 282 281 281 280
283 284 285 286 285 283 282 282 282 283 283 282 281 281 280 279 278 278 278 278 278 278 278 278 278 278 278 278 279 279 280 279 279 279 279 279 279 279 279 279 279 279 280 280 280 279 279 278 278 277 276 276 275 275 276 276 276 277 277 278 278 279 279 280 280 280 280 281 281 281 281 281 281 281 282 282 283 283 283 283 283 282 281 280 280 280
281 280 280 280 279 279 280 280 281 282 282 281 280 279 278 277 276 276 276 277 277 277 277 278 278 277 277 277 278 279 280 280 280 279 279 279 279 279 278 278 278 278 279 279 279 279 279 278 278 277 277 277 277 277 277 277 278 278 279 280 280 281 281 281 281 281 280 281 281 281 281 282 282 282 282 282 283 283 283 283 283 282 282 281 281 280
277 276 276 276 276 276 277 278 279 279 280 280 280 279 278 276 275 275 275 275 276 276 277 277 277 277 276 276 277 278 278 279 279 278 278 278 278 278 278 278 278 278 278 278 278 278 278 278 278 278 278 278 278 278 279 279 279 280 280 281 281 281 281 281 281 281 280 280 281 282 283 284 285 285 285 284 284 283 283 282 282 281 281 281 280 280
274 274 274 274 274 275 276 276 276 277 276 276 277 278 278 277 277 276 276 275 275 275 275 276 276 275 275 275 275 276 276 277 277 277 277 277 277 278 278 277 277 277 277 277 277 277 278 278 278 278 278 278 278 279 279 279 280 280 280 280 280 280 280 280 280 280 280 281 283 284 285 286 286 286 285 284 284 283 282 282 281 280 280 280 280 279
271 273 273 272 272 273 275 275 275 275 274 273 274 275 277 278 279 279 279 277 275 274 273 274 274 274 274 273 273 273 273 274 274 275 276 276 277 277 278 278 278 278 278 277 277 277 277 277 277 277 278 278 278 278 279 279 279 279 279 279 279 280 280 280 281 281 282 283 284 285 285 285 285 284 283 283 282 282 282 281 281 281 280 279 279 278
267 269 271 271 270 269 270 272 273 274 272 271 269 269 271 274 277 279 279 278 276 275 273 271 271 272 272 272 271 271 271 271 272 272 273 273 274 275 276 277 277 278 278 278 278 278 278 277 277 277 278 278 278 278 279 279 279 279 279 280 280 280 281 282 282 282 283 283 284 284 284 284 283 283 282 281 281 281 281 281 281 281 280 280 279 278
265 266 267 268 268 267 266 266 269 271 270 269 267 266 266 266 268 272 275 276 276 275 273 271 269 270 271 272 271 270 270 270 270 271 271 271 272 273 274 275 275 276 277 278 278 278 278 277 278 278 278 279 279 279 279 279 279 279 280 280 280 281 282 282 282 282 282 283 283 283 283 283 283 282 282 281 280 280 280 281 281 281 281 281 280 279
264 265 265 266 266 266 265 265 266 267 268 267 266 265 264 262 262 263 265 269 272 274 274 272 270 268 268 269 270 271 269 268 268 269 270 271 272 273 274 274 275 275 276 276 276 276 276 276 277 277 278 278 278 278 278 278 278 278 279 279 279 280 280 281 281 281 281 282 282 283 283 283 283 282 281 281 280 280 281 281 281 282 282 282 281 280
262 263 263 264 264 263 264 265 266 266 265 263 261 261 262 264 263 261 260 263 267 270 272 273 272 270 269 268 268 268 268 267 267 268 269 270 271 272 272 273 274 275 275 276 276 276 276 276 276 277 276 276 276 276 276 275 276 276 277 277 278 278 279 279 279 280 281 282 283 283 284 284 283 282 281 281 281 281 281 281 282 282 283 283 283 282
260 261 261 261 261 262 262 262 262 263 262 260 259 260 263 265 265 263 262 263 266 268 270 271 271 271 271 268 266 265 265 265 266 267 268 268 268 269 269 270 272 273 274 274 275 275 276 276 276 276 276 276 276 275 276 276 276 276 276 277 277 277 278 279 279 280 281 282 283 284 284 284 283 282 282 281 281 281 281 282 282 283 284 284 283 283
258 259 259 259 260 261 261 260 259 259 260 260 260 261 263 264 264 263 263 264 267 269 270 270 270 271 271 268 265 263 261 261 262 264 265 266 266 267 266 267 269 270 271 272 272 273 275 275 274 275 276 277 277 278 279 279 279 278 277 277 277 277 278 278 279 280 281 282 283 283 284 283 283 282 282 281 281 281 281 282 283 283 284 285 285 284
257 257 257 258 259 260 260 259 258 258 259 260 261 260 260 260 260 261 261 263 266 269 270 270 271 272 272 271 268 263 259 256 256 258 261 264 266 266 265 264 266 267 269 269 270 271 273 273 273 274 275 276 278 280 280 280 279 278 278 277 277 277 277 277 278 279 281 282 282 283 283 283 283 282 282 281 281 282 282 283 283 284 285 285 286 286
255 254 255 256 258 259 260 259 258 258 259 260 259 258 257 256 257 259 260 261 265 267 267 266 266 272 276 277 274 267 259 252 250 252 255 260 264 265 264 262 262 264 267 268 268 269 271 272 273 273 275 276 278 279 279 279 278 277 277 276 276 276 277 277 278 279 280 281 282 282 283 283 282 282 282 282 283 283 283 283 284 284 285 285 286 287
259 256 255 255 256 258 259 259 258 258 258 259 259 258 257 256 256 257 258 259 261 262 263 263 262 261 271 276 276 273 265 255 249 249 252 256 261 264 264 260 259 261 264 266 268 269 270 271 272 273 275 276 278 278 278 278 277 276 276 275 276 276 276 277 278 279 280 280 281 282 282 282 282 282 282 282 282 282 283 283 284 284 284 284 284 285
268 264 257 254 255 256 257 257 258 258 259 259 259 259 258 257 257 256 256 257 257 258 259 260 261 262 264 267 270 272 269 263 256 251 252 255 260 263 263 260 258 259 262 265 267 269 269 270 271 272 274 275 276 277 276 276 276 275 275 276 276 276 276 277 278 279 279 280 281 282 282 282 282 282 282 282 282 282 283 283 283 283 283 283 284 284
273 271 264 260 258 257 256 256 257 258 260 261 260 259 257 257 257 256 255 256 256 256 257 257 259 261 263 265 268 270 269 264 258 253 253 257 261 263 263 259 257 258 261 264 267 268 269 269 271 272 273 274 274 275 275 274 274 274 275 275 275 275 275 276 278 278 279 280 281 281 282 282 282 282 282 283 283 283 283 284 284 284 284 284 284 283
278 277 275 273 270 266 264 263 263 263 264 262 259 255 254 256 256 256 255 255 255 255 255 255 257 259 262 264 266 268 266 261 255 253 256 259 262 262 262 259 257 257 260 264 267 268 268 269 270 271 272 273 274 274 274 274 274 274 274 274 274 274 275 276 277 278 279 279 280 281 282 283 283 283 284 284 284 285 285 285 285 285 285 285 285 284
279 279 278 276 274 272 271 272 272 272 269 264 257 253 253 254 255 255 255 255 254 253 253 254 257 260 261 262 263 264 262 258 252 250 256 261 263 263 264 260 256 256 259 264 268 269 268 268 269 270 272 272 273 273 274 273 273 273 274 274 273 274 274 275 276 277 278 279 280 281 282 283 283 284 285 285 286 287 287 287 286 286 286 286 286 285
274 275 275 275 273 272 272 273 274 273 271 265 259 255 254 254 254 255 255 255 255 255 256 258 260 261 261 260 260 260 258 255 250 248 251 254 262 265 267 263 257 255 258 263 267 269 269 268 269 270 271 272 272 272 272 272 272 272 272 272 272 273 273 274 276 277 278 279 280 281 282 283 283 284 285 286 287 288 288 288 287 287 286 286 286 286
274 273 273 274 275 274 273 273 273 273 271 268 263 260 258 257 257 257 257 257 256 257 258 259 260 260 259 257 257 257 257 254 249 244 243 249 259 264 266 264 259 257 260 263 266 268 268 268 269 270 271 271 271 271 271 271 271 271 271 271 271 272 273 274 275 276 278 279 280 281 282 283 284 284 285 286 287 288 289 289 289 288 288 287 287 286
283 282 281 281 280 279 278 277 276 275 273 271 268 266 264 261 259 258 257 255 254 254 255 256 256 255 255 255 255 256 257 254 247 240 237 247 258 263 265 263 260 259 262 265 267 267 267 267 268 269 269 270 270 270 270 270 270 270 270 271 271 271 272 273 274 276 277 279 280 281 282 283 284 284 286 287 289 291 292 292 292 291 290 289 288 286
292 291 290 289 287 285 283 282 281 279 277 276 275 273 270 266 261 256 252 249 248 249 250 250 250 252 254 254 253 254 256 254 246 238 234 242 255 263 265 264 261 260 263 266 267 266 265 265 266 267 268 269 270 270 270 270 270 270 269 269 269 270 271 272 273 275 277 278 280 282 283 283 284 285 287 290 292 294 296 296 296 295 294 292 290 288
295 294 293 291 289 287 285 283 282 280 280 279 279 279 279 275 269 260 251 245 243 243 243 243 246 250 251 250 249 249 251 251 246 240 236 238 248 261 265 266 264 262 263 266 266 265 263 263 264 265 267 268 270 270 271 271 270 270 269 268 268 269 270 272 273 275 277 279 281 282 283 284 286 287 289 291 294 296 297 298 298 298 297 296 294 292
301 299 298 297 296 293 290 287 285 283 282 282 282 282 283 282 278 271 261 251 243 237 233 230 232 238 242 241 243 245 247 248 249 247 243 237 242 257 263 266 265 263 262 265 267 266 263 261 262 263 265 266 268 269 270 270 270 269 268 267 267 268 269 271 273 275 276 278 281 282 284 285 287 288 290 292 294 296 297 299 300 301 300 299 298 296
307 307 308 308 307 305 303 300 296 292 289 287 286 285 285 284 283 281 277 273 261 245 232 230 232 237 242 245 246 247 247 250 255 256 250 240 243 254 261 264 262 259 259 264 268 268 263 260 260 261 262 264 265 266 267 268 268 268 267 267 267 267 268 269 271 273 275 277 279 281 284 285 287 289 291 292 294 296 299 301 302 303 303 302 300 299
315 316 317 317 317 317 317 316 311 306 302 298 295 292 289 286 283 281 280 280 278 272 264 255 250 246 246 249 250 248 250 256 262 261 250 241 244 254 259 260 257 254 252 257 266 270 265 263 261 260 259 260 261 262 263 265 266 267 267 268 268 268 268 268 269 271 273 276 278 281 284 285 288 289 291 293 295 297 300 302 304 305 304 303 301 299
318 320 320 321 322 323 324 323 321 319 316 313 310 307 302 295 289 284 280 278 275 273 271 268 263 257 251 247 240 242 255 271 274 270 258 245 247 255 256 255 253 249 244 241 238 297 271 269 265 261 255 254 255 256 259 261 264 265 267 267 268 267 267 267 268 271 274 278 281 283 285 287 288 290 292 294 296 298 301 303 305 305 305 303 301 299
315 316 316 318 319 321 322 322 321 321 320 320 320 319 317 312 307 302 297 292 286 280 274 269 267 267 267 272 276 278 283 281 280 276 269 258 256 257 253 249 247 247 243 236 234 242 261 274 271 265 255 251 252 254 256 258 260 263 264 265 265 266 266 267 270 274 278 283 286 288 289 289 290 291 292 294 296 298 301 304 305 305 304 302 300 297
312 312 313 314 316 317 318 318 318 318 318 317 317 317 318 318 317 316 315 312 308 303 298 293 291 290 289 285 281 278 277 276 276 275 271 264 261 257 251 244 242 243 243 239 238 241 248 255 265 267 263 259 257 257 258 258 259 260 261 262 263 265 267 269 272 275 280 285 288 290 291 292 293 294 295 296 297 299 301 303 305 304 303 300 298 295
310 310 311 312 312 313 313 314 315 316 316 315 314 314 314 314 314 314 313 311 310 308 305 303 300 296 291 285 278 274 272 271 272 271 268 261 257 254 250 242 238 240 242 242 240 241 245 249 255 261 264 264 262 260 260 259 260 261 262 262 263 265 268 271 273 277 281 284 287 289 291 293 295 297 298 299 300 301 302 304 305 305 304 303 300 299
309 309 309 309 310 310 311 312 313 313 313 312 312 312 312 312 311 311 310 309 307 305 302 297 291 286 280 276 272 270 269 270 270 268 263 257 254 253 250 243 240 239 240 241 239 239 243 245 246 248 255 262 263 261 259 258 259 261 262 262 263 265 268 271 273 276 279 282 284 286 289 293 295 298 299 301 301 302 302 303 304 306 307 307 305 305
307 306 306 307 307 308 308 309 310 311 310 310 309 309 309 309 309 309 309 309 308 306 303 299 293 287 280 275 272 272 272 274 273 271 268 265 263 262 259 253 248 244 242 241 240 239 240 242 241 240 244 253 260 262 259 258 256 257 258 259 261 263 266 269 270 272 275 277 280 283 288 292 295 297 299 301 301 301 299 299 302 307 309 309 307 307
304 303 303 304 305 305 306 307 308 308 308 307 306 306 305 305 305 306 307 307 307 306 304 301 297 292 286 282 279 279 281 283 284 282 278 276 276 275 271 266 260 252 245 243 242 241 239 239 238 238 238 242 249 256 258 256 252 250 251 254 257 259 262 264 266 267 269 272 276 281 286 291 294 297 299 300 301 300 299 300 304 308 312 312 310 308
301 300 300 301 303 304 304 305 305 306 305 304 304 303 302 302 301 302 303 303 303 303 301 299 297 294 291 289 286 285 285 286 285 283 279 276 273 271 268 267 263 257 249 246 244 242 237 234 230 229 232 241 245 249 252 251 248 247 248 251 254 255 257 259 261 262 265 269 274 280 285 289 293 296 298 299 300 300 300 303 307 312 315 316 316 314
300 298 298 300 301 302 303 303 303 304 304 303 303 302 301 300 299 298 298 299 299 299 298 297 296 294 293 292 289 287 284 283 282 280 277 274 270 266 263 261 260 257 252 247 243 239 234 229 223 219 222 241 245 247 247 246 244 245 247 250 251 252 253 255 257 259 262 267 272 277 283 289 292 295 296 298 299 299 300 303 307 312 316 319 320 321
298 297 297 298 300 301 301 301 302 303 304 305 305 304 302 300 299 298 298 298 298 298 298 297 296 295 294 292 289 286 283 282 280 279 277 274 270 265 262 259 258 257 252 246 240 233 227 225 225 228 233 240 246 247 246 243 241 242 242 244 246 248 251 252 255 257 260 265 270 275 282 287 291 293 295 296 297 298 300 303 306 311 315 318 320 320
297 297 297 299 300 301 301 301 302 304 306 306 306 305 303 301 299 298 298 298 298 297 298 297 296 295 293 291 288 286 284 282 280 278 277 275 274 271 267 263 260 256 252 244 236 229 222 221 224 229 235 240 246 250 250 245 242 240 237 237 241 247 251 252 254 256 259 263 269 274 280 285 288 291 294 297 299 301 302 303 305 309 313 317 317 316
297 298 299 300 301 301 302 303 303 304 305 306 305 304 303 301 299 297 296 296 295 296 297 297 296 295 294 292 289 287 285 283 282 281 279 279 278 277 273 268 263 257 250 240 231 224 219 218 222 228 233 238 242 247 250 248 246 242 238 237 241 248 253 252 253 255 257 260 266 271 275 280 284 289 294 297 300 302 303 303 304 307 310 312 312 311
299 299 301 301 302 302 302 302 301 301 302 302 303 303 303 302 300 298 296 295 295 295 296 296 296 295 294 292 291 291 289 289 288 286 284 282 280 279 276 272 266 257 247 235 226 220 218 219 223 228 233 236 238 241 246 247 245 242 238 238 238 240 245 249 252 254 254 257 262 266 270 275 281 287 292 296 298 300 301 302 304 306 309 309 308 307
299 300 301 301 302 302 301 299 297 298 300 300 300 301 302 302 301 299 296 295 295 295 295 295 295 293 290 289 290 292 294 295 295 294 290 286 282 279 277 274 267 258 245 232 224 220 219 221 226 231 234 235 236 238 242 244 244 241 239 238 236 234 236 247 253 254 253 256 259 263 267 272 278 284 288 291 293 295 298 301 304 307 309 310 309 310
299 299 300 300 300 299 297 297 298 301 302 301 299 298 299 300 300 298 296 294 294 294 293 294 293 291 288 288 289 293 296 299 301 300 298 294 287 281 277 274 267 258 246 236 230 227 226 227 230 234 235 233 233 234 238 241 242 241 240 239 238 239 241 247 251 252 253 254 257 261 265 270 275 278 281 284 287 291 295 299 303 307 310 311 311 312
299 298 298 298 297 297 297 300 303 304 303 301 298 297 297 298 298 296 294 292 292 291 292 292 290 287 286 288 290 293 296 299 300 301 300 297 292 286 280 274 268 260 251 243 239 238 238 238 237 235 231 227 228 231 235 238 239 240 240 240 241 242 244 247 249 250 252 254 257 260 264 267 270 272 274 278 283 288 292 296 300 305 309 311 311 313
298 299 300 301 301 302 304 305 305 303 301 298 296 295 296 297 297 295 293 291 289 289 290 290 287 284 284 285 287 288 290 292 294 296 297 296 293 287 280 274 267 262 256 251 248 246 246 245 242 235 224 218 222 230 235 236 236 237 239 240 241 242 243 246 248 251 253 254 257 259 262 264 265 267 270 275 280 284 288 293 298 304 308 309 310 313
302 303 304 305 305 305 305 304 302 300 297 296 295 295 296 296 295 293 290 288 287 286 286 287 286 285 283 282 282 282 282 284 288 291 294 295 293 288 282 275 268 263 259 256 253 251 250 248 244 237 227 221 221 229 235 236 235 235 237 239 241 242 243 247 250 252 254 255 257 259 260 260 260 262 266 270 274 279 283 289 295 301 304 305 306 309
305 305 305 305 305 304 303 302 301 299 297 297 297 298 297 296 294 291 287 286 287 287 288 288 287 287 285 283 282 283 284 285 287 288 290 290 290 288 283 277 270 264 258 254 252 249 248 246 244 240 236 232 230 233 237 237 237 237 238 239 239 241 243 247 251 252 253 255 256 258 259 260 261 261 262 262 265 271 277 282 288 294 297 298 299 303
306 304 304 302 301 300 300 300 300 299 299 299 299 298 297 296 295 293 293 295 296 296 294 291 289 288 287 287 287 287 287 286 285 284 284 285 286 286 282 275 268 260 253 247 242 238 236 236 238 240 242 241 238 236 236 237 238 238 237 237 238 240 242 246 250 252 253 255 256 257 258 259 260 259 256 253 256 263 271 276 280 284 287 288 289 291
304 303 301 300 299 298 298 299 299 299 299 299 299 299 298 299 301 303 304 303 300 297 294 290 287 284 283 283 283 283 282 279 278 278 279 281 282 281 276 270 260 250 240 232 225 217 211 212 227 238 242 242 241 238 234 233 233 232 232 234 237 239 241 244 249 253 255 255 256 256 256 255 255 253 249 245 246 255 265 270 273 275 277 278 277 278